Wenatchee, WA
on Sunday, December 16, 2012

Sunday
Previous Day Next Day
Daily Summary
 ActualAverageRecord
Temperature
Mean Temperature °F 25°F  
Max Temperature 32°F 31°F 58°F (1999)
Min Temperature 22°F 20°F -11°F (1964)
Degree Days
Heating Degree Days 38 40  
Month to date heating degree days 463 617  
Since 1 July heating degree days 1622 2499  
Cooling Degree Days 0 0  
Month to date cooling degree days 0 0  
Year to date cooling degree days 888 249  
Moisture
Dew Point 27°F   
Average Humidity 87    
Maximum Humidity 96    
Minimum Humidity 78    
Precipitation
Precipitation 0.48 in 0.08 in 0.54 in (1961)
Month to date precipitation 0.87 1.33  
Year to date precipitation 8.38 15.88  
Snow
Snow 0.00 in 0.50 in in ()
Month to date snowfall 7.9  
Since 1 July snowfall 15.8  
Snow Depth in   
Wind
Wind Speed 2 mph   
Max Wind Speed 9 mph   
Max Gust Speed 13 mph   
Visibility 4 miles   
Events Fog , Snow   

Key: T is trace of precipitation, MM is missing value
Source: NWS Daily Summary
Time(PST)TemperatureDew PointHumidity Pressure Visibility Wind DirectionWind SpeedGust SpeedPrecipitationEvents Conditions
12:03 AM 28.4°F 24.8°F 86% 29.61 in 10.0 miles NNW 3.5 mph - N/A   Mostly Cloudy
12:35 AM 28.4°F 24.8°F 86% 29.62 in 10.0 miles North 5.8 mph - N/A   Overcast
12:55 AM 30.0°F 26.1°F 85% 29.65 in 10.0 miles Calm Calm - N/A   Overcast
1:44 AM 26.6°F 23.0°F 86% 29.62 in 10.0 miles WSW 3.5 mph - N/A   Scattered Clouds
1:55 AM 27.0°F 24.1°F 89% 29.66 in 10.0 miles West 3.5 mph - N/A   Scattered Clouds
2:55 AM 28.0°F 23.0°F 81% 29.69 in 10.0 miles West 5.8 mph - N/A   Clear
3:55 AM 25.0°F 21.9°F 88% 29.71 in 10.0 miles Calm Calm - N/A   Clear
5:55 AM 23.0°F 21.0°F 92% 29.73 in 10.0 miles East 5.8 mph - N/A   Partly Cloudy
6:55 AM 25.0°F 21.9°F 88% 29.74 in 10.0 miles Calm Calm - N/A   Partly Cloudy
7:55 AM 25.0°F 23.0°F 92% 29.75 in 10.0 miles Calm Calm - N/A   Overcast
8:55 AM 25.0°F 21.9°F 88% 29.75 in 9.0 miles Calm Calm - N/A   Overcast
9:55 AM 25.0°F 21.9°F 88% 29.75 in 10.0 miles NW 3.5 mph - N/A   Scattered Clouds
10:55 AM 28.0°F 25.0°F 88% 29.74 in 9.0 miles Calm Calm - N/A   Overcast
11:55 AM 30.9°F 27.0°F 85% 29.71 in 10.0 miles Calm Calm - N/A   Overcast
12:14 PM 28.4°F 26.6°F 93% 29.67 in 9.0 miles WSW 3.5 mph - N/A   Mostly Cloudy
12:55 PM 30.0°F 27.0°F 88% 29.68 in 10.0 miles Calm Calm - N/A   Mostly Cloudy
1:51 PM 30.2°F 26.6°F 86% 29.60 in 10.0 miles Calm Calm - N/A   Overcast
2:55 PM 30.9°F 27.0°F 85% 29.61 in 10.0 miles Calm Calm - N/A   Overcast
3:08 PM 30.2°F 26.6°F 86% 29.56 in 5.0 miles Calm Calm - 0.00 in Snow Light Snow
3:17 PM 30.2°F 26.6°F 86% 29.56 in 3.0 miles SSE 3.5 mph - 0.00 in Snow Light Snow
3:39 PM 30.2°F 26.6°F 86% 29.54 in 1.8 miles Calm Calm - 0.00 in Snow Light Snow
3:55 PM 30.0°F 27.0°F 88% 29.56 in 1.0 miles East 4.6 mph - 0.00 in Snow Light Snow
4:05 PM 30.2°F 26.6°F 86% 29.51 in 1.0 miles East 4.6 mph - 0.01 in Snow Light Snow
4:13 PM 30.2°F 28.4°F 93% 29.51 in 1.0 miles Calm Calm - 0.01 in Snow Light Snow
4:50 PM 30.2°F 28.4°F 93% 29.47 in 0.8 miles ENE 4.6 mph - 0.02 in Snow Light Snow
4:55 PM 30.9°F 28.9°F 92% 29.51 in 0.8 miles ENE 3.5 mph - 0.03 in Snow Light Snow
5:55 PM 30.9°F 27.0°F 85% 29.47 in 0.5 miles Calm Calm - 0.08 in Fog , Snow Snow
6:03 PM 30.2°F 28.4°F 93% 29.41 in 0.5 miles ENE 4.6 mph - 0.02 in Fog , Snow Snow
6:55 PM 30.0°F 28.9°F 96% 29.37 in 0.8 miles East 8.1 mph - 0.10 in Snow Light Snow
7:08 PM 30.2°F 28.4°F 93% 29.31 in 1.0 miles East 6.9 mph - 0.01 in Snow Light Snow
7:24 PM 30.2°F 28.4°F 93% 29.30 in 1.2 miles SE 4.6 mph - 0.02 in Snow Light Snow
7:36 PM 30.2°F 28.4°F 93% 29.29 in 0.8 miles Calm Calm - 0.03 in Snow Light Snow
7:55 PM 32.0°F 30.0°F 92% 29.31 in 1.0 miles ESE 4.6 mph - 0.07 in Snow Light Snow
8:04 PM 30.2°F 28.4°F 93% 29.26 in 0.8 miles North 5.8 mph - 0.02 in Snow Light Snow
8:43 PM 32.0°F 30.2°F 93% 29.22 in 0.8 miles Calm Calm - 0.10 in Snow Light Snow
8:51 PM 32.0°F 30.2°F 93% 29.23 in 1.0 miles WNW 4.6 mph - 0.11 in Snow Light Snow
8:55 PM 30.0°F 28.9°F 96% 29.27 in 1.0 miles WNW 6.9 mph - 0.11 in Snow Light Snow
9:22 PM 30.2°F 28.4°F 93% 29.23 in 0.8 miles Calm Calm - 0.04 in Snow Light Snow
9:55 PM 30.0°F 28.9°F 96% 29.23 in 1.0 miles SW 4.6 mph - 0.08 in Snow Light Snow
10:22 PM 30.2°F 28.4°F 93% 29.17 in 0.5 miles West 3.5 mph - 0.00 in Fog , Snow Light Snow
10:36 PM 30.2°F 28.4°F 93% 29.17 in 0.2 miles Calm Calm - 0.00 in Fog , Snow Light Snow
10:51 PM 30.2°F 28.4°F 93% 29.16 in 0.5 miles Calm Calm - 0.00 in Fog , Snow Light Snow
10:55 PM 30.0°F 28.9°F 96% 29.19 in 0.5 miles Calm Calm - 0.00 in Fog , Snow Light Snow
11:08 PM 30.2°F 28.4°F 93% 29.16 in 2.0 miles Calm Calm - 0.00 in Snow Light Snow
11:28 PM 30.2°F 28.4°F 93% 29.15 in 3.0 miles South 3.5 mph - 0.01 in Snow Light Snow
11:43 PM 30.2°F 28.4°F 93% 29.15 in 1.8 miles Calm Calm - 0.01 in   Overcast
11:55 PM 30.9°F 28.9°F 92% 29.18 in 0.5 miles Calm Calm - 0.01 in Fog Light Freezing Fog
Moon Phase
Dec. 16 Dec. 20 Dec. 28 Jan. 04 Jan. 11
Sunrise:07:42 AM (PST) Moon Rise:10:06 AM (PST)12/16
Sunset:04:10 PM (PST) Moon Set:08:45 PM (PST)12/16

Copyright © 2014 The Weather Underground, Inc.